User: anonymous   Login
Location: Unspecified
(0.0000°N, 0.0000°E)
Time: 00:09:48
(UTC+00:00)
Language:

AISSAT 1 - Orbit

View from above orbital plane
View from above orbital plane
View from above satellite
View from above satellite

Ground track
Ground track

The orbit data is extracted from the following two-line orbital elements,

1 36797U 10035C   18112.40319297  .00000237  00000-0  33546-4 0  9996
2 36797  98.0666 235.0291 0012493  70.8397 289.4169 14.86016275421224
Epoch (UTC): 22 April 2018 09:40:35
Eccentricity: 0.0012493
inclination: 98.0666°
perigee height: 601 km
apogee height: 619 km
right ascension of ascending node: 235.0291°
argument of perigee: 70.8397°
revolutions per day: 14.86016275
mean anomaly at epoch: 289.4169°
orbit number at epoch: 42122

The dashed part of the orbit path shows where the satellite is in the earth's shadow,  

DLR